Current Version              Previous Version:    01  02  03  04  05  06  07  08  09  10  11  12  13  14  15  16  17  18  19  20  21  22  23  24  25  26  27  28  29  30  
   31  32  33  34  35  36  37  38  39  40  41  42  43  44  45  46  47  48  49  50  51  52  53  54  55  56  57  58  59  60  

[Printable]
162
ASUS44 KEWX 231110
RWRTX
SOUTH TEXAS REGIONAL WEATHER ROUNDUP
NATIONAL WEATHER SERVICE AUSTIN/SAN ANTONIO TX
600 AM CDT WED APR 23 2014

NOTE: "FAIR" INDICATED FEW OR NO CLOUDS BELOW 12,000 FEET WITH NO
SIGNIFICANT WEATHER AND/OR OBSTRUCTIONS TO VISIBILITY.

* - THESE STATIONS ARE NOT NWS OR FAA STATIONS...AND ARE NOT SUBJECT
    TO NWS AND FAA QUALITY CONTROL.

TXZ171-172-183>190-231200-
TEXAS HILL COUNTRY AND EDWARDS PLATEAU

CITY           SKY/WX    TMP DP  RH WIND       PRES   REMARKS
JUNCTION       CLEAR     61  56  83 CALM      29.91F
*LLANO         CLEAR     57  55  94 CALM      29.95F
BURNET         CLEAR     63  57  81 CALM      29.95S
*HORSESHOE BAY CLEAR     58  54  85 CALM      29.92S
*KERRVILLE     PTCLDY    56  54  91 CALM      29.94S
*FREDERICKSBRG CLEAR     56  54  94 CALM      29.94S
*ROCKSPRINGS   PTCLDY    64  63  94 SE9       29.94F
*BOERNE STAGE  PTCLDY    55  52  88 CALM      29.94S
*CASTROVILLE   PTCLDY    67  62  83 CALM      29.93S
HONDO          PTCLDY    68  62  81 E5        29.93S
*UVALDE        CLEAR     68  64  85 E6        29.91S
DEL RIO        CLEAR     71  61  70 E12       29.85S
LAUGHLIN AFB   CLEAR     68  61  76 E14       29.86F
CARRIZO SPRGS    N/A     66  63  88 E5        29.86
$$

TXZ173-191>194-202-209-217>225-228-231200-
CENTRAL AND SOUTH CENTRAL TEXAS

CITY           SKY/WX    TMP DP  RH WIND       PRES   REMARKS
GEORGETOWN     CLEAR     55  52  88 CALM      29.93S
AUSTIN/BERGSTM CLEAR     53  53 100 CALM      29.92S
AUSTIN/MABRY   CLEAR     62  57  83 CALM      29.93S
*AUSTIN/EXEC   CLEAR     59  59 100 CALM      29.93S
*LAGO VISTA    CLEAR     67  61  79 SW5       29.94F
SAN MARCOS     CLEAR     55  48  76 NW6       29.95R
NEW BRAUNFELS  CLEAR     58  56  93 CALM      29.91S
RANDOLPH AFB   CLEAR     60  56  88 N2        29.92S
PT SAN ANTONIO CLEAR     66  63  89 SE3       29.91R
SAN ANTONIO    PTCLDY    66  62  87 CALM      29.92S
STINSON FIELD  PTCLDY    65  63  93 CALM      29.90R
*PLEASANTON    PTCLDY    66  63  91 CALM      29.91S
*LA GRANGE     MOCLDY    62  62  99 CALM      29.91S FOG
*GIDDINGS      CLEAR     57  56  95 CALM      29.96S
*GONZALES      FOG       63  62  99 CALM      29.91S VSB 1/4
$$

TXZ163>164-176>182-195>201-210>213-226-227-235-231200-
SOUTHEAST TEXAS

CITY           SKY/WX    TMP DP  RH WIND       PRES   REMARKS
COLLEGE STN    CLEAR     62  60  93 CALM      29.93R
*BRYAN         CLEAR     59  58  99 CALM      29.92S FOG
*CALDWELL      CLEAR     57  57 100 CALM      29.96R FOG
*CROCKETT      CLEAR     59  59 100 CALM      29.97S
*BRENHAM       FOG       61  59  96 CALM      29.94R VSB 1
HUNTSVILLE     CLEAR     65  62  90 S3        29.94S
CONROE         PTCLDY    56  55  97 CALM      29.94S
HOUSTON BUSH   PTCLDY    65  64  97 CALM      29.93S
HOUSTON HOBBY  FOG       65  64  97 CALM      29.93S VSB 1/2
*HOUSTON SW AP FOG       65  65 100 CALM      29.94S VSB 1/4
PEARLAND       FOG       66  64  93 CALM      29.95R VSB 1/2
HOUSTON HOOKS  PTCLDY    64  64 100 CALM      29.93S FOG
ELLINGTON FLD  FOG       68  66  94 CALM      29.94S VSB 1/2
SUGAR LAND     CLOUDY    66  65  96 CALM      29.93S
*HOUSTON EXEC  HAZE      61  43  51 CALM      29.94S VSB<1/4
*CLEVELAND MUN FOG       60  60  99 CALM      29.95S VSB 1/4
*WHARTON       FOG       65  64  99 CALM      29.93S VSB 1/2
$$

TXZ214>216-236>238-231200-
THE UPPER TEXAS COAST

CITY           SKY/WX    TMP DP  RH WIND       PRES   REMARKS
*ORANGE        FOG       67  67 100 SW3       29.96R VSB 1/4
PORT ARTHUR    FOG       67  66  97 CALM      29.94R VSB 1/4
GALVESTON      CLOUDY    68  68 100 NW5       29.95R FOG
ANGLETON       CLOUDY    66  65  96 CALM      29.93S FOG
*BAY CITY      FOG       66  66 100 CALM      29.92S VSB<1/4
PALACIOS       PTCLDY    67  65  93 CALM      29.92R
$$

TXZ229>234-239>247-231200-
TEXAS COASTAL BEND AND RIO GRANDE PLAINS

CITY           SKY/WX    TMP DP  RH WIND       PRES   REMARKS
VICTORIA       FOG       67  66  97 CALM      29.92S VSB 1/4
*BEEVILLE      CLEAR     64  64 100 SE3       29.90S FOG
ROCKPORT       PTCLDY    70  69  97 SE6       29.90S
*PORT ARANSAS  CLEAR     70  70 100 S6        29.90S
*PORT LAVACA   FOG       64  64  99 CALM      29.91S VSB 1/4
*INGLESIDE     CLEAR     69  68  98 S6        29.90R
CORPUS CHRISTI MOCLDY    70  67  90 S6        29.90S
CORPUS NAS     MOCLDY    72  70  93 S7        29.89S
*ROBSTOWN      MOCLDY    69  68  96 SE6       29.90F
ALICE          CLOUDY    66  65  96 SE6       29.89S
KINGSVILLE NAS PTCLDY    68  67  96 SE6       29.90R
COTULLA        CLEAR     68  63  84 E9        29.88F
*FAITH RANCH   CLEAR     68  64  88 E5        29.87S
LAREDO         CLEAR     71  68  90 SE9       29.89R
$$

TXZ248>255-231200-
DEEP SOUTH TEXAS

CITY           SKY/WX    TMP DP  RH WIND       PRES   REMARKS
BROWNSVILLE    CLEAR     68  68 100 SE5       29.88S
PORT ISABEL    NOT AVBL
*SOUTH PADRE   LGT RAIN  70  70 100 CALM      29.89S
HARLINGEN      CLOUDY    64  64 100 E5        29.87S FOG
*HEBBRONVILLE  CLOUDY    69  66  89 SE5       29.89S
MCALLEN        MOCLDY    69  68  96 SE5       29.87S
*WESLACO       CLEAR     68  65  91 CALM      29.86F
FALFURRIAS     CLOUDY    68  66  91 SE5       29.89S
EDINBURG       PTCLDY    68  65  90 CALM      29.87S
*ZAPATA        CLEAR     68  68  98 SE9       29.85F
$$

TXZ213>215-236>238-242>244-246-247-251-254-255-231200-
CMAN STATIONS

STATION/POSITION TIME  TEMP    WIND        PRES    WAVE
                       AIR SEA DIR/SP/G            HT/PER
                 (UTC) (F)     (DEG/KT/KT) (MB)    (FT/S)
SABINE PASS      1100   68 71   CALM  /  1 1013.7
SEA RIM ST PARK  1100   68     290/  2/  2 1014.6
NORTH JETTY/GLS  1100   69 73   10/  2/  2   N/A
EAGLE POINT      1100   66 67     CALM     1013.4
MORGANS POINT    1100   68 68  280/  2/  2   N/A
MISSION/ARANSAS  1000   71     170/  7     1013.0
PORT O`CONNOR    1100          200/  5/  6   N/A
PORT ARANSAS     1100   71 72  160/  9/  9 1012.6
MALAQUITE BEACH  1100   71 73  150/  9/ 10 1011.6
BAFFIN BAY       1100   71 71  150/  6/  8 1012.3
PORT ISABEL      1100   71 74  150/  7/  9 1012.1
$$

GMZ080-GMZ150>470-231200-
OFFSHORE BUOY REPORTS

STATION/POSITION TIME  TEMP    WIND        PRES    WAVE
                       AIR SEA DIR/SP/G            HT/PER
                 (UTC) (F)     (DEG/KT/KT) (MB)    (FT/S)
20 E GALVESTON   1100   69 70  240/  4/  6 1013.5    1/ 4
35 NE PT MANSFLD 1100   71 71  140/  6/  6 1012.7    1/ 5
$$